This is the latest recevied weather packets stored in our database for station/object KB1YYC. If no packets are shown the sender has not sent any weather packets the latest 1 day(s).
| Time | Temp. | Humidity | Pressure | Rain* | Wind** | Luminosity | Snow |
|---|---|---|---|---|---|---|---|
| 1777991829 | 21.11° C | 48% | 1008.4 hPa | 0 mm | 1.34 m/s, 264° | 387 W/m² | - |
| 1777991526 | 20.56° C | 50% | 1008.5 hPa | 0 mm | 0.45 m/s, 260° | 309 W/m² | - |
| 1777991223 | 21.11° C | 49% | 1008.3 hPa | 0 mm | 0.45 m/s, 227° | 269 W/m² | - |
| 1777990920 | 21.11° C | 48% | 1008.3 hPa | 0 mm | 0.89 m/s, 252° | 353 W/m² | - |
| 1777990618 | 20° C | 50% | 1008.3 hPa | 0 mm | 0.45 m/s, 268° | 316 W/m² | - |
| 1777990315 | 20° C | 51% | 1008 hPa | 0 mm | 0.89 m/s, 246° | 225 W/m² | - |
| 1777990011 | 20° C | 51% | 1007.9 hPa | 0 mm | 0.89 m/s, 259° | 163 W/m² | - |
| 1777989708 | 20° C | 51% | 1007.8 hPa | 0 mm | 0.45 m/s, 253° | 107 W/m² | - |
| 1777989404 | 20.56° C | 50% | 1007.5 hPa | 0 mm | 0.45 m/s, 262° | 113 W/m² | - |
| 1777989101 | 20.56° C | 49% | 1007.4 hPa | 0 mm | 1.34 m/s, 210° | 188 W/m² | - |
| 1777988797 | 21.11° C | 47% | 1007.5 hPa | 0 mm | 2.24 m/s, 196° | 242 W/m² | - |
| 1777988494 | 21.67° C | 46% | 1007.9 hPa | 0 mm | 0.45 m/s, 244° | 493 W/m² | - |
| 1777988191 | 21.11° C | 47% | 1008.2 hPa | 0 mm | 0.89 m/s, 257° | 653 W/m² | - |
| 1777987887 | 20.56° C | 48% | 1008.2 hPa | 0 mm | 0.89 m/s, 253° | 564 W/m² | - |
| 1777987583 | 20° C | 50% | 1008.4 hPa | 0 mm | 0 m/s | 527 W/m² | - |
| 1777987281 | 19.44° C | 51% | 1008.2 hPa | 0 mm | 0.89 m/s, 244° | 519 W/m² | - |
| 1777986978 | 19.44° C | 50% | 1008.5 hPa | 0 mm | 0.89 m/s, 255° | 515 W/m² | - |
| 1777986676 | 19.44° C | 51% | 1008.8 hPa | 0 mm | 0 m/s | 168 W/m² | - |
| 1777986374 | 18.89° C | 51% | 1008.5 hPa | 0 mm | 1.34 m/s, 226° | 614 W/m² | - |
| 1777986072 | 18.33° C | 52% | 1008.7 hPa | 0 mm | 1.34 m/s, 223° | 490 W/m² | - |
| 1777985768 | 18.89° C | 51% | 1008.6 hPa | 0 mm | 1.34 m/s, 218° | 429 W/m² | - |
| 1777985465 | 18.89° C | 51% | 1008.7 hPa | 0 mm | 0.45 m/s, 290° | 191 W/m² | - |
| 1777985161 | 18.89° C | 51% | 1008.6 hPa | 0 mm | 1.34 m/s, 286° | 412 W/m² | - |
| 1777984858 | 18.33° C | 53% | 1008.7 hPa | 0 mm | 0.89 m/s, 265° | 444 W/m² | - |
| 1777984554 | 18.33° C | 52% | 1008.6 hPa | 0 mm | 0.89 m/s, 260° | 433 W/m² | - |
* Rain latest hour (hover to see other rain measurements)
** Current wind speed in m/s (hover to see current wind gust speed)